Chollas Lake (167) Station Data

Red Flag Warning: No
Fire Weather Zone: 243
SDGE Region: Metro
Lat/Lon: 32.736/-117.067

Observations

Time Wind Speed/Gust Temp(F) RH Fuel Moist Fuel Temp(F) Dewpt(F) Tmax(F) Tmin(F) Accum Precip 10-min Precip SL Press(mb)
4/26 2:30am 63 2 G 2 57° 92% - - 55° 58.5° 56.6° - - -
4/26 2:20am 59 1 G 2 57° 91% - - 55° 58.5° 56.6° - - -
4/26 2:10am 75 0 G 1 57° 90% - - 54° 58.5° 56.6° - - -
4/26 2:00am 7 0 G 1 57° 90% - - 54° 58.5° 56.6° - - -
4/26 1:50am 4 0 G 1 57° 89% - - 54° 58.5° 56.6° - - -
4/26 1:40am 98 0 G 2 57° 89% - - 54° 58.5° 56.6° - - -
4/26 1:30am 113 1 G 2 57° 88% - - 53° 58.5° 56.6° - - -
4/26 1:20am 160 1 G 2 57° 87% - - 53° 58.5° 56.6° - - -
4/26 1:10am 146 1 G 3 57° 87% - - 53° 58.5° 56.6° - - -
4/26 12:50am 147 2 G 3 57° 87% - - 54° 58.5° 57° - - -
4/26 12:40am 175 0 G 1 57° 87% - - 53° 58.5° 57° - - -
4/26 12:30am 150 1 G 3 58° 86% - - 54° 58.5° 57.4° - - -
4/26 12:20am 122 2 G 3 58° 86% - - 54° 58.5° 57.5° - - -
4/26 12:10am 84 1 G 2 58° 86% - - 54° 58.5° 57.5° - - -
4/26 12:00am 120 2 G 3 58° 86% - - 54° 68.2° 56.9° - - -
4/25 11:50pm 156 1 G 2 58° 87% - - 54° 68.2° 56.9° - - -
4/25 11:40pm 188 1 G 2 58° 86% - - 54° 68.2° 56.9° - - -
4/25 11:30pm 185 1 G 2 58° 86% - - 54° 68.2° 56.9° - - -
4/25 11:20pm 183 1 G 2 58° 85% - - 54° 68.2° 56.9° - - -
4/25 11:10pm 171 2 G 3 58° 85% - - 54° 68.2° 56.9° - - -
4/25 11:00pm 165 2 G 3 59° 84% - - 54° 68.2° 56.9° - - -
4/25 10:50pm 158 2 G 3 59° 84% - - 54° 68.2° 56.9° - - -
4/25 10:40pm 155 3 G 4 59° 83% - - 54° 68.2° 56.9° - - -
4/25 10:30pm 152 3 G 5 59° 83% - - 54° 68.2° 56.9° - - -
4/25 10:10pm 135 3 G 6 60° 81% - - 54° 68.2° 56.9° - - -
4/25 10:00pm 165 2 G 3 60° 81% - - 54° 68.2° 56.9° - - -
4/25 9:50pm 202 2 G 4 60° 80% - - 54° 68.2° 56.9° - - -
4/25 9:40pm 200 1 G 3 60° 80% - - 54° 68.2° 56.9° - - -
4/25 9:30pm 172 1 G 3 60° 79% - - 54° 68.2° 56.9° - - -
4/25 9:20pm 202 1 G 2 61° 80% - - 54° 68.2° 56.9° - - -
4/25 9:10pm 116 1 G 3 61° 79% - - 54° 68.2° 56.9° - - -
4/25 9:00pm 124 2 G 5 61° 80% - - 54° 68.2° 56.9° - - -
4/25 8:50pm 262 1 G 2 60° 80% - - 54° 68.2° 56.9° - - -
4/25 8:40pm 306 1 G 4 61° 80% - - 54° 68.2° 56.9° - - -
4/25 8:30pm 267 4 G 6 61° 78% - - 54° 68.2° 56.9° - - -
4/25 8:20pm 262 3 G 6 61° 76% - - 53° 68.2° 56.9° - - -
4/25 8:10pm 269 3 G 5 61° 74% - - 53° 68.2° 56.9° - - -
4/25 8:00pm 263 2 G 5 61° 72% - - 52° 68.2° 56.9° - - -
4/25 7:50pm 251 3 G 5 62° 68% - - 51° 68.2° 56.9° - - -
4/25 7:40pm 252 2 G 4 62° 66% - - 51° 68.2° 56.9° - - -
4/25 7:30pm 250 3 G 5 62° 65% - - 50° 68.2° 56.9° - - -
4/25 7:20pm 278 3 G 6 63° 63% - - 50° 68.2° 56.9° - - -
4/25 7:10pm 269 3 G 6 63° 61% - - 49° 68.2° 56.9° - - -
4/25 7:00pm 256 3 G 6 63° 59% - - 49° 68.2° 56.9° - - -
4/25 6:50pm 276 4 G 8 64° 57% - - 48° 68.2° 56.9° - - -
4/25 6:40pm 275 5 G 9 64° 53% - - 47° 68.2° 56.9° - - -
4/25 6:30pm 265 5 G 10 64° 51% - - 46° 68.2° 56.9° - - -
4/25 6:20pm 251 5 G 9 64° 54% - - 47° 68.2° 56.9° - - -
4/25 6:10pm 268 6 G 10 64° 55% - - 48° 68.2° 56.9° - - -
4/25 6:00pm 271 6 G 12 65° 54% - - 48° 68.2° 56.9° - - -
4/25 5:50pm 264 6 G 13 65° 54% - - 48° 68.2° 56.9° - - -
4/25 5:40pm 274 7 G 12 65° 56% - - 49° 68.2° 56.9° - - -
4/25 5:30pm 281 6 G 11 66° 53% - - 48° 68.2° 56.9° - - -
4/25 5:20pm 278 6 G 11 65° 53% - - 47° 68.2° 56.9° - - -
4/25 5:10pm 265 6 G 11 64° 58% - - 49° 68.2° 56.9° - - -
4/25 5:00pm 263 7 G 11 65° 57% - - 49° 68.2° 56.9° - - -
4/25 4:50pm 265 8 G 16 65° 58% - - 49° 68.2° 56.9° - - -
4/25 4:40pm 253 7 G 13 65° 57% - - 50° 68.2° 56.9° - - -
4/25 4:30pm 267 6 G 12 65° 59% - - 51° 68.2° 56.9° - - -
4/25 4:20pm 269 6 G 12 65° 60% - - 51° 68.2° 56.9° - - -
4/25 4:10pm 272 7 G 14 65° 60% - - 51° 68.2° 56.9° - - -
4/25 4:00pm 272 7 G 14 66° 58% - - 51° 68.2° 56.9° - - -
4/25 3:50pm 265 7 G 17 67° 58% - - 51° 68.2° 56.9° - - -
4/25 3:40pm 269 8 G 15 67° 59% - - 52° 68.2° 56.9° - - -
4/25 3:30pm 253 7 G 14 67° 60% - - 53° 68.2° 56.9° - - -
4/25 3:20pm 262 7 G 14 67° 60% - - 52° 68° 56.9° - - -
4/25 3:10pm 241 7 G 16 66° 62% - - 52° 68° 56.9° - - -
4/25 3:00pm 255 7 G 13 66° 60% - - 51° 68° 56.9° - - -
4/25 2:50pm 266 7 G 14 66° 58% - - 51° 68° 56.9° - - -
4/25 2:40pm 263 6 G 12 66° 58% - - 51° 68° 56.9° - - -
4/25 2:30pm 258 7 G 12 67° 57% - - 51° 68° 56.9° - - -
4/25 2:20pm 253 7 G 14 67° 60% - - 53° 68° 56.9° - - -
4/25 2:10pm 248 7 G 13 66° 65% - - 54° 68° 56.9° - - -
4/25 2:00pm 252 7 G 13 66° 64% - - 54° 68° 56.9° - - -
4/25 1:50pm 256 8 G 15 65° 66% - - 54° 68° 56.9° - - -
4/25 1:40pm 242 8 G 14 66° 65% - - 53° 68° 56.9° - - -
4/25 1:30pm 239 7 G 14 66° 65% - - 54° 68° 56.9° - - -
4/25 1:20pm 242 7 G 12 66° 62% - - 53° 68° 56.9° - - -
4/25 1:10pm 240 7 G 13 66° 64% - - 53° 68° 56.9° - - -
4/25 1:00pm 245 7 G 15 66° 65% - - 54° 68° 56.9° - - -
4/25 12:50pm 231 5 G 11 67° 63% - - 53° 68° 56.9° - - -
4/25 12:40pm 231 5 G 12 67° 60% - - 53° 67.5° 56.9° - - -
4/25 12:30pm 228 6 G 11 66° 62% - - 52° 66.8° 56.9° - - -
4/25 12:20pm 205 6 G 13 66° 63% - - 53° 66.8° 56.9° - - -
4/25 12:10pm 216 6 G 13 65° 63% - - 53° 66.8° 56.9° - - -
4/25 12:00pm 208 5 G 9 66° 64% - - 53° 66.8° 56.9° - - -
4/25 11:50am 208 5 G 10 66° 65% - - 54° 66.7° 56.9° - - -
4/25 11:40am 217 5 G 12 65° 66% - - 53° 66.7° 56.9° - - -
4/25 11:30am 229 6 G 13 65° 66% - - 53° 65.8° 56.9° - - -
4/25 11:20am 222 6 G 11 65° 66% - - 53° 65.8° 56.9° - - -
4/25 11:10am 217 6 G 13 65° 66% - - 53° 65.7° 56.9° - - -
4/25 11:00am 212 5 G 11 65° 66% - - 53° 65.7° 56.9° - - -
4/25 10:50am 213 5 G 10 64° 68% - - 53° 64.5° 56.9° - - -
4/25 10:40am 232 5 G 9 64° 70% - - 53° 64.5° 56.9° - - -
4/25 10:30am 208 5 G 9 63° 71% - - 53° 64.5° 56.9° - - -
4/25 10:20am 225 5 G 10 63° 71% - - 54° 64.5° 56.9° - - -
4/25 10:10am 199 6 G 9 64° 69% - - 54° 64.4° 56.9° - - -
4/25 10:00am 190 5 G 8 63° 73% - - 54° 64.4° 56.9° - - -
4/25 9:50am 185 5 G 8 62° 76% - - 54° 62.3° 56.9° - - -
4/25 9:40am 202 5 G 10 61° 78% - - 54° 62° 56.9° - - -
4/25 9:30am 208 4 G 8 61° 78% - - 54° 62° 56.9° - - -
4/25 9:20am 195 5 G 10 61° 78% - - 54° 62° 56.9° - - -
4/25 9:10am 213 5 G 9 61° 78% - - 54° 61.2° 56.9° - - -
4/25 9:00am 202 4 G 8 61° 78% - - 54° 61.2° 56.9° - - -
4/25 8:50am 195 3 G 6 61° 77% - - 53° 61.2° 56.9° - - -
4/25 8:40am 185 4 G 7 61° 77% - - 53° 61.2° 56.9° - - -
4/25 8:30am 196 3 G 6 60° 77% - - 53° 61° 56.9° - - -
4/25 8:20am 203 4 G 7 60° 77% - - 53° 61° 56.9° - - -
4/25 8:10am 206 4 G 8 60° 77% - - 53° 61° 56.9° - - -
4/25 8:00am 190 4 G 9 60° 78% - - 53° 60.8° 56.9° - - -
4/25 7:50am 176 4 G 9 60° 80% - - 53° 60.3° 56.9° - - -
4/25 7:40am 173 5 G 9 59° 81% - - 53° 59.8° 56.9° - - -
4/25 7:30am 174 5 G 8 59° 82% - - 53° 59.7° 56.9° - - -
4/25 7:20am 167 4 G 7 59° 82% - - 53° 59.7° 56.9° - - -
4/25 7:10am 166 4 G 8 58° 83% - - 53° 59.7° 56.9° - - -
4/25 7:00am 157 4 G 8 58° 84% - - 53° 59.7° 56.9° - - -
4/25 6:50am 158 5 G 8 58° 84% - - 53° 59.7° 56.9° - - -
4/25 6:40am 156 6 G 10 58° 85% - - 53° 59.7° 56.9° - - -
4/25 6:30am 149 5 G 9 58° 86% - - 53° 59.7° 56.9° - - -
4/25 6:20am 140 5 G 9 58° 86% - - 54° 59.7° 56.9° - - -
4/25 6:10am 155 4 G 6 58° 86% - - 54° 59.7° 56.9° - - -
4/25 6:00am 152 5 G 8 58° 87% - - 54° 59.7° 56.9° - - -
4/25 5:50am 158 6 G 9 58° 87% - - 54° 59.7° 56.9° - - -
4/25 5:40am 157 5 G 9 58° 88% - - 54° 59.7° 56.9° - - -
4/25 5:30am 157 5 G 9 57° 88% - - 54° 59.7° 56.9° - - -
4/25 5:20am 153 5 G 8 57° 89% - - 54° 59.7° 56.9° - - -
4/25 5:10am 157 5 G 8 57° 90% - - 54° 59.7° 56.9° - - -
4/25 5:00am 156 5 G 9 57° 89% - - 54° 59.7° 56.9° - - -
4/25 4:50am 156 6 G 8 57° 89% - - 54° 59.7° 56.9° - - -
4/25 4:40am 146 5 G 8 57° 90% - - 54° 59.7° 56.9° - - -
4/25 4:30am 138 5 G 8 57° 90% - - 54° 59.7° 56.9° - - -
4/25 4:20am 141 5 G 9 57° 91% - - 54° 59.7° 56.9° - - -
4/25 4:10am 150 6 G 10 57° 90% - - 55° 59.7° 57° - - -
4/25 4:00am 157 7 G 10 58° 89% - - 54° 59.7° 57.2° - - -
4/25 3:50am 155 6 G 11 58° 89% - - 54° 59.7° 57.2° - - -
4/25 3:40am 147 6 G 11 58° 88% - - 54° 59.7° 57.3° - - -
4/25 3:30am 147 6 G 9 58° 87% - - 54° 59.7° 57.4° - - -
4/25 3:20am 154 8 G 13 58° 87% - - 54° 59.7° 57.4° - - -
4/25 3:10am 160 8 G 12 58° 87% - - 54° 59.7° 57.6° - - -
4/25 3:00am 171 6 G 13 58° 84% - - 54° 59.7° 58° - - -
4/25 2:50am 173 6 G 11 59° 82% - - 53° 59.7° 58° - - -
4/25 2:40am 171 6 G 12 59° 79% - - 52° 59.7° 58° - - -
4/25 2:30am 171 6 G 11 59° 77% - - 52° 59.7° 58° - - -
4/25 2:20am 170 6 G 11 59° 75% - - 51° 59.7° 58° - - -
4/25 2:10am 173 5 G 10 59° 75% - - 51° 59.7° 58° - - -
4/25 2:00am 177 4 G 8 59° 76% - - 51° 59.7° 58° - - -
4/25 1:50am 184 4 G 7 59° 77% - - 51° 59.7° 58° - - -
4/25 1:40am 176 5 G 9 58° 78% - - 51° 59.7° 58° - - -
4/25 1:30am 181 4 G 8 58° 78% - - 51° 59.7° 58° - - -
4/25 1:20am 194 4 G 6 58° 77% - - 51° 59.7° 58.1° - - -
4/25 1:10am 189 3 G 6 59° 78% - - 52° 59.7° 58.2° - - -
4/25 1:00am 191 3 G 6 59° 79% - - 52° 59.7° 58.3° - - -
4/25 12:50am 187 3 G 6 59° 79% - - 52° 59.7° 58.5° - - -
4/25 12:40am 202 3 G 6 59° 80% - - 53° 59.7° 58.5° - - -
4/25 12:30am 197 3 G 8 59° 79% - - 53° 59.7° 58.5° - - -
4/25 12:20am 199 3 G 6 59° 79% - - 53° 59.7° 58.5° - - -
4/25 12:10am 189 4 G 7 59° 81% - - 53° 59.3° 58.5° - - -
4/25 12:00am 181 4 G 6 59° 82% - - 54° 67.2° 57.8° - - -
4/24 11:50pm 201 4 G 7 59° 81% - - 53° 67.2° 57.8° - - -
4/24 11:40pm 233 4 G 7 59° 78% - - 53° 67.2° 57.8° - - -
4/24 11:30pm 206 2 G 7 59° 76% - - 52° 67.2° 57.8° - - -
4/24 11:20pm 203 3 G 5 59° 76% - - 52° 67.2° 57.8° - - -
4/24 11:10pm 189 3 G 6 59° 77% - - 52° 67.2° 57.8° - - -
4/24 11:00pm 199 3 G 6 59° 78% - - 52° 67.2° 57.8° - - -
4/24 10:50pm 208 3 G 9 59° 79% - - 52° 67.2° 57.8° - - -
4/24 10:40pm 212 3 G 7 59° 80% - - 53° 67.2° 57.8° - - -
4/24 10:30pm 207 3 G 8 59° 81% - - 53° 67.2° 57.8° - - -
4/24 10:20pm 185 4 G 8 59° 82% - - 54° 67.2° 57.8° - - -
4/24 10:10pm 200 4 G 8 59° 82% - - 54° 67.2° 57.8° - - -
4/24 10:00pm 186 4 G 7 59° 82% - - 54° 67.2° 57.8° - - -
4/24 9:50pm 189 3 G 6 60° 81% - - 54° 67.2° 57.8° - - -
4/24 9:40pm 194 3 G 6 60° 80% - - 54° 67.2° 57.8° - - -
4/24 9:30pm 181 3 G 6 60° 79% - - 53° 67.2° 57.8° - - -
4/24 9:20pm 172 3 G 6 60° 78% - - 53° 67.2° 57.8° - - -
4/24 9:10pm 167 4 G 7 60° 77% - - 53° 67.2° 57.8° - - -
4/24 9:00pm 163 3 G 5 60° 78% - - 53° 67.2° 57.8° - - -
4/24 8:50pm 170 3 G 5 60° 79% - - 53° 67.2° 57.8° - - -
4/24 8:40pm 195 2 G 6 60° 80% - - 54° 67.2° 57.8° - - -
4/24 8:30pm 175 3 G 6 60° 79% - - 53° 67.2° 57.8° - - -
4/24 8:20pm 166 3 G 5 60° 78% - - 53° 67.2° 57.8° - - -
4/24 8:10pm 166 3 G 6 60° 78% - - 53° 67.2° 57.8° - - -
4/24 8:00pm 183 3 G 6 60° 78% - - 53° 67.2° 57.8° - - -
4/24 7:50pm 202 3 G 6 60° 80% - - 53° 67.2° 57.8° - - -
4/24 7:40pm 226 4 G 7 60° 79% - - 53° 67.2° 57.8° - - -
4/24 7:30pm 219 4 G 7 60° 79% - - 54° 67.2° 57.8° - - -
4/24 7:20pm 220 3 G 7 60° 78% - - 54° 67.2° 57.8° - - -
4/24 7:10pm 207 3 G 6 60° 79% - - 54° 67.2° 57.8° - - -
4/24 7:00pm 212 4 G 7 60° 78% - - 53° 67.2° 57.8° - - -
4/24 6:50pm 219 3 G 8 61° 77% - - 53° 67.2° 57.8° - - -
4/24 6:40pm 229 3 G 5 61° 77% - - 54° 67.2° 57.8° - - -
4/24 6:30pm 201 3 G 6 61° 77% - - 54° 67.2° 57.8° - - -
4/24 6:20pm 209 4 G 8 61° 78% - - 54° 67.2° 57.8° - - -
4/24 6:10pm 207 4 G 7 62° 77% - - 54° 67.2° 57.8° - - -
4/24 6:00pm 202 4 G 9 62° 78% - - 55° 67.2° 57.8° - - -